STARLINK-37512, 69035

Orbit data source: Space-Track

STARLINK-37512, 69035 is a payload satellite owned by SpaceX/Seattle (US) in SSO that was launched on Wed, 06 May 2026 UTC via an FALCON 9 launch vehicle from the Air Force Western Test Range (AFWTR). Payload-class satellites include a variety of spacecraft equipped with specific instruments for various scientific and technological missions. These include communications satellites like Starlink; space stations such as the ISS; scientific satellites like the Hubble; Earth observation satellites from companies like Planet Labs, Umbra, and HawkEye 360; GPS; miniature CubeSats for education and research; and military/defense satellites.

Loading next visibility...
Identifier
69035, 2026-101L
Orbit
SSO
Country
Flag of USUS
Related business
Manufacturer
SpaceX/Seattle
Mission
Operational Commercial Communications
Bus & Motor
STARLINK V2MO, Unknown motor
Mass
575 kg wet, ~530 kg dry
Launch date (UTC)
2026-05-06 (3 months ago)
Launch vehicle
FALCON 9
Launch site
Air Force Western Test Range (AFWTR)
Object type
Payload
Rocket body
Debris
Shape & HBR
Box + 2 Pan, 17.7 m
Radar Cross Section
36.964 m², Large (>1 m²)

Expand to show TLE details & history
Last TLE update: 14 hours ago

TLE from 14 hours ago
0 STARLINK-37512
1 69035U 26101L   26206.53658998  .00020121  00000-0  62397-3 0  9998
2 69035  97.2847  60.8960 0001028 119.8020 240.3325 15.33442623 12457
Epoch: 2026-07-25T12:52Z
TLE epoch observation values (Epoch: 2026-07-25T12:52:41.374Z)
Latitude
-0.00002°
Longitude
-75.52385°
Altitude
469.011 km
Speed
7.631 km/s
True Right ascension
04h 03m 35s
True Declination
0° 00' 00"
Sunlit
Object was in daylight at epoch
Visualization orbit readout
Latitude
Unknown
Longitude
Unknown
Altitude
Unknown
Speed
Unknown
Apparent Right ascension
Unknown
Apparent Declination
Unknown
Sunlit
N/A
Visualization observer readout
Local Sidereal Time
16:18:39
Azimuth
Unknown
Elevation
Unknown
Doppler factor
Unknown
Orbital elements
Apogee altitude
463.196 km
Perigee altitude
461.79 km
Semi-major axis
6,840.63 km
Eccentricity
0.0001
Inclination
97.2847°
RAAN
60.896°
Arg. of periapsis
119.802°
True anomaly
240.32226°
Mean anomaly
240.3325°
Eccentric anomaly
240.32738°
Mean motion
3.83618 °/min
Orbital period
93.84 mins
BSTAR
0.00062397
Loading maneuver chart data...
Computing Atmospheric mass density...
Loading historical data...
Loading historical data...
Loading historical data...
Loading historical data...
Loading historical data...
Loading historical data...
Loading historical data...

Documentation

Showing up to 5 results
|